www.pogodaiklimat.ru

Погода и климат >> Архив погоды >> Австралия >> Западная Австралия >> Порт-Хедленд Apardoo


ПОГОДА в Порт-Хедленде Apardoo

  • Прогноз погоды в Порт-Хедленде Apardoo
  • Монитор погоды в Порт-Хедленде Apardoo

АРХИВ ПОГОДЫ в Порт-Хедленде Apardoo

Время (UTC), дата Ветер
(напр.,м/с)
 
Видим.   Явления Облачность Т
(С)
Тd
(С)
f
(%)
Тe
(С)
Тes
(С)
Комфортность P
(гПа)
Po
(гПа)
Тmin
(С)
Tmax
(С)
R
(мм)
R24
(мм)
S
(см)
16 16.07 ЮВ 4 н/о н/о +12.3 -1.6 38 +11 +11 1019.6 1018.7
18 16.07 ЮВ 5 н/о н/о +11.6 -2.6 37 +10 +10 1018.9 1018.0
19 16.07 ЮВ 5 н/о н/о +10.7 -2.3 40 +9 +9 1018.7 1017.8
21 16.07 ЮВ 4 н/о н/о +10.0 -2.3 42 +8 +8 1019.1 1018.2
22 16.07 ЮВ 4 н/о н/о +9.2 -2.1 45 +7 +7 1019.6 1018.7
00 17.07 ЮВ 5 н/о н/о +17.9 -1.9 26 +17 +17 1020.8 1019.9
01 17.07 В 9 н/о н/о +21.2 -3.3 19 +20 +20 1020.7 1019.8 +9.1
03 17.07 В 9 н/о н/о +25.5 -4.9 13 +23 +23 комфорт 1019.8 1018.9
04 17.07 В 9 н/о н/о +26.1 -5.5 12 +23 +23 комфорт 1018.7 1017.8
06 17.07 В 6 н/о н/о +27.8 -6.6 10 +25 +25 комфорт 1016.6 1015.7
07 17.07 В 6 н/о н/о +28.3 -9.1 8 +25 +25 комфорт 1015.9 1015.0
09 17.07 С 4 н/о н/о +23.8 +4.7 29 +24 +24 комфорт 1015.7 1014.8
10 17.07 С 3 н/о н/о +18.4 +5.3 42 +19 +19 1016.1 1015.2
12 17.07 СЗ 2 н/о н/о +16.8 +6.3 50 +17 +17 1017.3 1016.4
13 17.07 СЗ 2 н/о н/о +14.5 +6.3 58 +14 +14 1017.6 1016.7 +29.1
15 17.07 Ю 3 н/о н/о +13.7 +5.8 59 +13 +13 1017.5 1016.6
16 17.07 Ю 2 н/о н/о +12.1 +4.8 61 +11 +11 1017.4 1016.5
18 17.07 Ю 2 н/о н/о +11.1 -0.4 45 +10 +10 1016.9 1016.0
19 17.07 Ю 2 н/о н/о +10.2 -1.8 43 +9 +9 1017.0 1016.1
21 17.07 ЮВ 5 н/о н/о +10.1 -2.5 41 +8 +8 1017.2 1016.3
22 17.07 ЮВ 3 н/о н/о +9.8 -2.5 42 +8 +8 1017.7 1016.8
00 18.07 ЮВ 4 н/о н/о +18.0 -3.4 23 +18 +18 1018.5 1017.6
01 18.07 В 7 н/о н/о +22.4 -4.6 16 +21 +21 комфорт 1018.7 1017.8 +9.6
03 18.07 В 8 н/о н/о +27.0 -2.7 14 +24 +24 комфорт 1017.9 1017.0
04 18.07 В 7 н/о н/о +28.0 -4.0 12 +25 +25 комфорт 1016.8 1015.9
06 18.07 СВ 4 н/о н/о +28.5 +1.9 18 +26 +26 жарко 1014.8 1013.9
07 18.07 С 5 н/о н/о +26.9 +2.1 20 +25 +25 комфорт 1014.3 1013.4
09 18.07 С 3 н/о н/о +24.8 +4.5 27 +24 +24 комфорт 1014.6 1013.7
10 18.07 С 3 н/о н/о +20.3 +5.9 39 +22 +22 комфорт 1014.9 1014.0
12 18.07 З 3 н/о н/о +17.0 +6.5 50 +17 +17 1015.9 1015.0
13 18.07 Ю 2 н/о н/о +16.2 +7.4 56 +16 +16 1015.9 1015.0 +29.1
15 18.07 Ю 3 н/о н/о +14.6 +6.7 59 +14 +14 1015.6 1014.7
16 18.07 Ю 4 н/о н/о +14.0 +5.4 56 +13 +13 1015.5 1014.6
18 18.07 Ю 4 н/о н/о +13.2 +5.1 58 +12 +12 1014.9 1014.0
19 18.07 Ю 3 н/о н/о +12.6 +5.1 60 +11 +11 1014.6 1013.7
21 18.07 Ю 4 н/о н/о +12.1 +3.1 54 +11 +11 1014.7 1013.8
22 18.07 Ю 3 н/о н/о +12.2 +2.9 53 +11 +11 1015.1 1014.2
00 19.07 ЮВ 2 н/о н/о +16.9 +1.4 35 +17 +17 1016.0 1015.1
01 19.07 В 5 н/о н/о +23.7 -1.3 19 +22 +22 комфорт 1016.5 1015.6 +12.1
03 19.07 СВ 5 н/о н/о +28.3 -1.7 14 +26 +26 жарко 1016.1 1015.2
04 19.07 СВ 5 н/о н/о +28.8 +2.1 18 +27 +27 жарко 1015.1 1014.2
06 19.07 С 5 н/о н/о +28.5 -0.6 15 +26 +26 жарко 1013.8 1012.9
07 19.07 С 6 н/о н/о +27.4 +5.6 25 +26 +26 жарко 1013.2 1012.3
09 19.07 С 5 н/о н/о +24.2 +12.5 48 +26 +26 жарко 1013.7 1012.8
10 19.07 С 3 н/о 1/0
[]
+20.9 +15.4 71 +25 +25 комфорт 1014.3 1013.4
12 19.07 СЗ 3 н/о н/о +19.2 +16.4 84 +21 +21 комфорт 1015.2 1014.3
13 19.07 З 3 н/о 5/0
[]
+18.2 +16.5 90 +19 +19 1015.9 1015.0 +30.2
15 19.07 З 2 н/о н/о +19.2 +17.9 92 +22 +22 комфорт 1015.6 1014.7
16 19.07 штиль 0 н/о 9/0
[]
+18.1 +16.1 88 +18 +18 1015.2 1014.3
18 19.07 ЮЗ 2 н/о н/о +16.4 +15.9 97 +16 +16 1014.9 1014.0
19 19.07 З 2 300 м 1/0
[]
+16.7 +16.7 100 +17 +17 1014.3 1013.4
21 19.07 З 3 н/о н/о +15.4 +15.4 100 +15 +15 1014.3 1013.4
22 19.07 З 2 н/о н/о +14.9 +14.9 100 +14 +14 1014.9 1014.0
00 20.07 штиль 0 н/о н/о +17.2 +14.1 82 +17 +17 1015.6 1014.7
01 20.07 ЮЗ 3 н/о н/о +22.3 +9.5 44 +24 +24 комфорт 1016.2 1015.3 +14.6
03 20.07 Ю 3 н/о н/о +28.4 +4.0 21 +27 +27 жарко 1015.5 1014.6
04 20.07 Ю 4 н/о н/о +29.6 -0.7 14 +27 +27 жарко 1014.8 1013.9
06 20.07 СЗ 6 н/о н/о +28.7 +8.9 29 +28 +28 жарко 1013.5 1012.6
07 20.07 СЗ 6 н/о н/о +27.8 +8.1 29 +28 +28 жарко 1013.3 1012.4
09 20.07 СЗ 5 н/о н/о +25.0 +10.5 40 +26 +26 жарко 1013.9 1013.0
10 20.07 СЗ 4 н/о н/о +22.0 +10.8 49 +24 +24 комфорт 1013.9 1013.0
12 20.07 З 3 н/о н/о +19.3 +14.3 73 +21 +21 комфорт 1015.1 1014.2
13 20.07 ЮВ 2 н/о н/о +18.8 +13.6 72 +20 +20 1015.4 1014.5 +31.2
15 20.07 Ю 5 н/о н/о +18.2 +14.3 78 +18 +18 1015.8 1014.9
16 20.07 Ю 3 н/о н/о +17.6 +12.9 74 +18 +18 1015.5 1014.6
18 20.07 Ю 4 н/о н/о +16.9 +9.3 61 +17 +17 1015.0 1014.1
19 20.07 Ю 3 н/о н/о +16.4 +8.9 61 +16 +16 1015.0 1014.1
21 20.07 Ю 4 н/о н/о +15.3 +7.3 59 +15 +15 1015.1 1014.2
22 20.07 ЮВ 4 н/о н/о +16.8 +5.7 48 +16 +16 1015.7 1014.8
00 21.07 ЮВ 5 н/о н/о +20.0 +4.1 35 +20 +20 1016.8 1015.9
01 21.07 ЮВ 7 н/о н/о +21.8 +2.5 28 +22 +22 комфорт 1017.5 1016.6 +14.8
03 21.07 В 8 н/о н/о +24.5 +1.4 22 +23 +23 комфорт 1016.9 1016.0
04 21.07 ЮВ 7 н/о н/о +25.7 +1.8 21 +24 +24 комфорт 1016.1 1015.2
06 21.07 В 5 н/о н/о +28.2 +2.4 19 +26 +26 жарко 1014.3 1013.4
07 21.07 В 5 н/о н/о +28.4 +2.6 19 +26 +26 жарко 1013.8 1012.9
09 21.07 С 4 н/о н/о +24.0 +11.7 46 +26 +26 жарко 1013.9 1013.0
10 21.07 СЗ 3 н/о н/о +20.6 +11.5 56 +23 +23 комфорт 1014.1 1013.2
12 21.07 СЗ 2 н/о н/о +18.4 +12.2 67 +20 +20 1015.4 1014.5
13 21.07 Ю 2 н/о н/о +17.7 +11.7 68 +18 +18 1015.5 1014.6 +28.9
15 21.07 Ю 2 н/о н/о +15.7 +12.3 80 +16 +16 1015.8 1014.9
16 21.07 Ю 4 н/о н/о +14.5 +10.7 78 +13 +13 1015.7 1014.8
18 21.07 Ю 3 н/о н/о +14.7 +10.7 77 +14 +14 1015.6 1014.7
19 21.07 ЮВ 2 н/о н/о +14.6 +8.8 68 +14 +14 1015.5 1014.6
21 21.07 Ю 3 н/о н/о +13.2 +3.3 51 +12 +12 1015.7 1014.8
22 21.07 ЮЗ 2 н/о н/о +11.5 +3.5 58 +11 +11 1016.1 1015.2
00 22.07 ЮВ 3 н/о н/о +17.1 +1.1 34 +17 +17 1017.2 1016.3
01 22.07 В 7 н/о н/о +22.6 -2.2 19 +21 +21 комфорт 1017.6 1016.7 +11.3
03 22.07 В 8 н/о н/о +26.2 -4.4 13 +24 +24 комфорт 1016.7 1015.8
04 22.07 ЮВ 7 н/о н/о +27.5 -5.6 11 +24 +24 комфорт 1015.8 1014.9
06 22.07 ЮВ 5 н/о н/о +29.1 -3.2 12 +26 +26 жарко 1014.1 1013.2
07 22.07 Ю 4 н/о н/о +29.3 -1.9 13 +26 +26 жарко 1013.9 1013.0
09 22.07 С 4 н/о н/о +24.3 +6.1 31 +24 +24 комфорт 1014.3 1013.4
10 22.07 СЗ 3 н/о н/о +20.6 +8.6 46 +22 +22 комфорт 1014.9 1014.0
12 22.07 ЮЗ 2 н/о н/о +19.0 +9.8 55 +20 +20 1016.2 1015.3
13 22.07 Ю 3 н/о н/о +17.1 +9.8 62 +17 +17 1016.7 1015.8 +29.7
15 22.07 ЮЗ 2 н/о н/о +15.8 +9.5 66 +16 +16 1017.0 1016.1
16 22.07 В 2 н/о н/о +15.0 +9.6 70 +15 +15 1017.3 1016.4
18 22.07 В 4 н/о н/о +14.1 +1.4 42 +13 +13 1016.7 1015.8
19 22.07 ЮВ 4 н/о н/о +14.7 -1.4 33 +14 +14 1016.2 1015.3
21 22.07 ЮВ 3 н/о н/о +14.3 -2.6 31 +14 +14 1016.4 1015.5
22 22.07 ЮВ 2 н/о н/о +13.3 -2.2 34 +13 +13 1017.1 1016.2
00 23.07 ЮВ 5 н/о н/о +19.6 -3.9 20 +19 +19 1018.5 1017.6
01 23.07 В 8 н/о н/о +22.9 -2.6 18 +21 +21 комфорт 1018.6 1017.7 +12.4
03 23.07 В 11 н/о н/о +26.2 -3.4 14 +24 +24 комфорт 1018.4 1017.5
04 23.07 В 8 н/о н/о +27.0 -2.7 14 +24 +24 комфорт 1017.3 1016.4
06 23.07 ЮВ 6 н/о н/о +28.0 -4.0 12 +25 +25 комфорт 1015.8 1014.9
07 23.07 ЮВ 5 н/о н/о +28.6 -3.6 12 +26 +26 жарко 1015.5 1014.6
09 23.07 ЮВ 5 н/о н/о +27.1 -4.7 12 +24 +24 комфорт 1014.8 1013.9
10 23.07 С 3 н/о 1/0
[]
+22.5 +4.1 30 +23 +23 комфорт 1016.1 1015.2
12 23.07 З 2 н/о н/о +20.5 +6.5 40 +22 +22 комфорт 1017.6 1016.7
13 23.07 ЮЗ 4 н/о 9/0
[]
+19.2 +7.6 47 +20 +20 1018.3 1017.4 +29.3
15 23.07 ЮЗ 3 н/о н/о +19.2 +7.0 45 +20 +20 1018.3 1017.4
16 23.07 Ю 4 н/о 8/0
[]
+18.9 +2.3 33 +19 +19 1017.7 1016.8

 

Местоположение метеостанции Порт-Хедленд Apardoo (Западная Австралия, Австралия): широта -20.36 долгота 118.63 высота над уровнем моря 9 м.

В архиве по умолчанию представлена погода в Порт-Хедленде Apardoo за последнюю неделю. Архивные данные за месяц целиком и за предыдущие месяцы, начиная с января 2011 года, Вы можете получить, выбрав интересующий диапазон дат из раскрывающегося списка и нажав кнопку "Ввод!".


*Определитесь, кто Вы:
робот инопланетянин человек

Внимание! Время в таблицах - всемирное. Для получения местного времени необходимо прибавить поправку, которая равна 8 ч.

Смотрите также архив погоды в соседних городах и на ближайших метеорологических станциях:

Погода в Марбл-баре (Западная Австралия, Австралия) (148 км)
Погода в Роборн аэропорту (Западная Австралия, Австралия) (160 км)
Погода в Каррате (Западная Австралия, Австралия) (198 км)
Погода в Мандоре (Западная Австралия, Австралия) (242 км)
Погода в Марди (Западная Австралия, Австралия) (291 км)
Погода в Роули Шоалс (Западная Австралия, Австралия) (317 км)
Погода на Острове Варанас (Западная Австралия, Австралия) (320 км)
Погода в Параберду (Западная Австралия, Австралия) (325 км)
Погода в Барроу-Айленд (Западная Австралия, Австралия) (341 км)
Погода в Ньюмане (Западная Австралия, Австралия) (360 км)

Пояснения к столбцам:

Ветер - указаны скорость ветра в м/с - средняя за 10 мин, порывы в срок и между сроками (в фигурных скобках) и направление, откуда дует ветер: С - северный, СВ - северо-восточный, В - восточный, ЮВ - юго-восточный, Ю - южный, ЮЗ - юго-западный, З - западный, СЗ - северо-западный.
Видимость - горизонтальная дальность видимости в метрах или километрах. При видимости от 1 до 10 км при отсутствии осадков обычно наблюдается дымка, при ухудшении видимости до 1 км и менее - туман. В сухую погоду видимость может ухудшаться дымом, пылью или мглою.
Явления - указаны атмосферные явления, наблюдавшиеся в срок или в последний час перед сроком; фигурными скобками обозначены явления, наблюдавшиеся между сроками (за 1-3 часа до срока); квадратными скобками обозначены град или гололедные отложения с указанием их диаметра в мм.
Облачность - указаны через наклонную черту общая и нижняя облачность в баллах и высота нижней границы облаков в метрах; квадратными скобками обозначены формы облаков: Ci - перистые, Cs - перисто-слоистые, Cc - перисто-кучевые, Ac - высококучевые, As - высокослоистые, Sc - слоисто-кучевые, Ns - слоисто-дождевые, Cu - кучевые, Cb - кучево-дождевые. Подробнее классификацию облаков см. в Атласе облаков (PDF).
T - Температура воздуха - температура, измеренная на высоте 2 м над землей.
Td - Температура точки росы - температура, при понижении до которой содержащийся в воздухе водяной пар достигнет насыщения.
f - Относительная влажность воздуха - влажноcть воздуха, измеренная на высоте 2 м над землей.
Te - Эффективная температура - температура, которую ощущает одетый по сезону человек в тени. Характеристика душности погоды. При расчете учитывается влияние влажности воздуха и скорости ветра на теплоощущения человека.
Tes - Эффективная температура на солнце - температура, которую ощущает человек, с поправкой на солнечный нагрев. Характеристика знойности погоды. Зависит от высоты солнца над горизонтом, облачности и скорости ветра. Ночью, в пасмурную погоду, а также при ветре 12 м/с и более поправка равна нулю.
P - Атмосферное давление - приведенное к уровню моря атмосферное давление.
Po - Атмосферное давление - измеренное на уровне метеостанции атмосферное давление.
Tmin - Минимальная температура - минимум температуры воздуха на высоте 2 м над землей.
Tmax - Максимальная температура - максимум температуры воздуха на высоте 2 м над землей.
R - Количество осадков - Количество выпавших осадков за период времени, мм. При наведении курсора мыши на число - период времени, за который выпало указанное количество осадков.
R24 - Количество осадков - Количество выпавших осадков за 24 часа, мм.
S - Снежный покров - Высота снежного покрова, см. При наведении курсора мыши на число - состояние снежного покрова и степень покрытия местности в баллах.